[[{"header":{"parameterUnit":"m.s-1","parameterCategory":1,"la1":30.2992,"la2":30.254,"lo1":-89.0895,"lo2":-89.0443,"dy":0.0025,"dx":0.0025,"nx":19,"ny":19,"refTime":"2026-03-11T21:00:00:Z","depth":0,"parameterNumber":2,"parameterNumberName":"U-component_of_WINDS"},"data":[0,0,0,2.444,2.4442,2.4515,2.4515,2.4621,2.4622,0,0,0,0,0,0,0,0,0,0,0,2.4423,2.4424,2.444,2.4442,2.4515,2.4516,2.4621,2.4622,0,0,0,0,0,0,0,0,0,0,0,2.4422,2.4423,2.4424,2.4442,2.4515,2.4516,2.462,2.4562,0,0,0,0,0,0,0,0,0,0,2.4489,2.4476,2.4423,2.4425,2.4443,2.4515,2.4516,2.4559,2.4565,2.4592,0,2.4613,0,2.4619,2.4629,2.463,0,0,0,2.444,2.4471,2.4486,2.4425,2.4444,2.4515,2.4482,2.4562,2.457,2.46,2.4615,2.4619,2.4621,2.463,2.4631,2.4782,2.4783,0,0,2.4436,2.4439,2.4481,2.4491,2.4477,2.4479,2.4484,2.4567,2.4584,2.4615,2.4621,2.4622,2.4631,2.4632,2.4781,2.4782,0,0,0,2.4426,2.4437,2.445,2.4487,2.4499,2.4481,2.4487,2.458,2.4584,2.4622,2.4624,2.4631,2.4633,2.478,2.4781,2.4824,0,0,0,2.4423,2.443,2.4448,2.4451,2.4498,2.454,2.4499,2.4578,2.4588,2.4623,2.4631,2.4634,2.4779,2.4781,2.482,2.4844,0,0,0,2.4417,2.443,2.4441,2.4451,2.4482,2.4539,2.4547,2.458,2.4589,2.463,2.4634,2.4779,2.4781,2.4818,2.4839,2.4885,0,0,0,2.4412,2.448,2.4442,2.4519,2.4481,2.4563,2.4546,2.4608,2.4648,2.4632,2.4779,2.4781,2.4817,2.4836,2.4882,2.4923,2.4941,0,0,2.4499,2.449,2.4535,2.4503,2.4592,2.4551,2.4647,2.4683,2.4685,2.475,2.4754,2.4821,2.4839,2.4884,2.5036,2.5049,0,0,0,2.4564,2.4596,2.4619,2.4655,2.4682,2.4707,2.4726,2.4739,2.4794,2.4718,2.4849,2.486,2.4886,2.4906,2.4918,2.4941,2.479,2.479,2.479,2.4694,2.4691,2.4765,2.477,2.4806,2.4824,2.4854,2.4875,2.4864,2.4895,2.4914,2.5006,2.503,2.5039,2.5062,2.4936,2.4936,2.4936,2.4936,2.4823,2.4868,2.4848,2.4913,2.491,2.4966,2.4986,2.4976,2.5029,2.4992,2.5015,2.4975,2.5054,2.5075,2.4939,2.4939,2.4938,2.4938,2.4938,2.4909,2.493,2.4942,2.4993,2.5034,2.5038,2.5089,2.5085,2.5082,2.5105,2.5125,2.5125,2.5124,2.5114,2.5115,2.5115,2.5115,2.5116,2.5116,2.4993,2.5005,2.5047,2.5079,2.5101,2.5131,2.5149,2.5172,2.5197,2.5191,2.5191,2.5177,2.5061,2.5033,2.5121,2.512,2.5119,2.5119,2.5118,2.5127,2.5095,2.516,2.5182,2.5219,2.526,2.5253,2.53,2.5319,2.5344,2.5325,2.5239,2.5231,2.5222,2.5198,2.5324,2.5324,2.5324,2.5324,2.52,2.5194,2.5258,2.5294,2.5329,2.5328,2.5403,2.5418,2.543,2.5442,2.5422,2.5391,2.5381,2.5379,2.5366,2.5344,2.5504,2.5504,2.5504,2.5282,2.5279,2.5343,2.535,2.5378,2.5404,2.5475,2.5519,2.5525,2.5512,2.5451,2.5443,2.5392,2.5375,2.5362,2.5342,2.5302,0,0]},{"header":{"parameterUnit":"m.s-1","parameterCategory":1,"la1":30.2992,"la2":30.254,"lo1":-89.0895,"lo2":-89.0443,"dy":0.0025,"dx":0.0025,"nx":19,"ny":19,"refTime":"2026-03-11T21:00:00:Z","depth":0,"parameterNumber":3,"parameterNumberName":"V-component_of_WINDS"},"data":[0,0,0,5.1303,5.1305,5.1424,5.1425,5.159,5.1592,0,0,0,0,0,0,0,0,0,0,0,5.1271,5.1272,5.1302,5.1305,5.1424,5.1425,5.159,5.1592,0,0,0,0,0,0,0,0,0,0,0,5.127,5.1271,5.1273,5.1306,5.1424,5.1425,5.159,5.1496,0,0,0,0,0,0,0,0,0,0,5.1379,5.1351,5.1271,5.1273,5.1307,5.1424,5.1425,5.1492,5.1502,5.1541,0,5.1571,0,5.1584,5.1603,5.1604,0,0,0,5.1304,5.1342,5.1371,5.1273,5.1308,5.1424,5.137,5.1497,5.1509,5.1555,5.1573,5.1579,5.1587,5.1604,5.1605,5.1822,5.1824,0,0,5.1298,5.1295,5.1363,5.1379,5.1356,5.1367,5.1374,5.1504,5.1527,5.1574,5.1583,5.1589,5.1606,5.1607,5.1821,5.1823,0,0,0,5.128,5.129,5.1316,5.1372,5.1392,5.137,5.1379,5.1521,5.1529,5.1585,5.1591,5.1607,5.1609,5.182,5.1822,5.1872,0,0,0,5.1276,5.1279,5.1313,5.1312,5.139,5.1457,5.1392,5.152,5.1535,5.159,5.1607,5.161,5.1819,5.1821,5.1868,5.1898,0,0,0,5.1262,5.1278,5.1296,5.1312,5.1362,5.1455,5.1471,5.1523,5.1539,5.1604,5.1611,5.1818,5.1821,5.1865,5.1892,5.1957,0,0,0,5.1247,5.1339,5.1296,5.1402,5.1361,5.1483,5.147,5.1562,5.1623,5.1607,5.1819,5.1822,5.1864,5.1889,5.1953,5.2012,5.2036,0,0,5.1361,5.1352,5.1415,5.138,5.1509,5.1465,5.1603,5.1664,5.1675,5.1774,5.1779,5.187,5.1892,5.1956,5.2162,5.2181,0,0,0,5.145,5.1495,5.153,5.1587,5.1633,5.1678,5.1717,5.174,5.1824,5.1723,5.1909,5.1922,5.196,5.1989,5.2005,5.204,5.1834,5.1833,5.1833,5.1609,5.1616,5.1721,5.1743,5.1799,5.1839,5.1887,5.1926,5.1917,5.1961,5.1992,5.2115,5.2149,5.2161,5.2197,5.2021,5.2021,5.2021,5.2021,5.178,5.1846,5.1832,5.1929,5.1938,5.2021,5.2066,5.2057,5.214,5.2092,5.2126,5.2077,5.2181,5.2213,5.2025,5.2025,5.2024,5.2024,5.2023,5.1887,5.1921,5.1945,5.203,5.2096,5.2116,5.2196,5.2201,5.2207,5.224,5.2276,5.2275,5.2278,5.2256,5.2256,5.2256,5.2257,5.2257,5.2257,5.199,5.2016,5.208,5.2139,5.2178,5.223,5.2273,5.2314,5.236,5.2358,5.2359,5.235,5.2187,5.2149,5.2264,5.2263,5.2262,5.2262,5.2261,5.2166,5.2127,5.2227,5.2266,5.2337,5.2405,5.2409,5.2492,5.2526,5.2567,5.255,5.2428,5.242,5.2408,5.2377,5.2544,5.2544,5.2544,5.2544,5.226,5.2255,5.236,5.2423,5.2485,5.2499,5.2619,5.2655,5.2687,5.271,5.2686,5.2644,5.2631,5.2632,5.2614,5.2585,5.2802,5.2803,5.2803,5.2371,5.2373,5.247,5.2497,5.2554,5.2605,5.2718,5.2796,5.2825,5.2814,5.273,5.2719,5.265,5.2627,5.2616,5.2589,5.2535,0,0]}]]